Regional Weather Roundup
Issued by NWS State College, PA

Home | Current Version | Previous Version | Text Only | Print | Product List | Glossary On
Versions: 1 2 3 4 5 6 7 8 9 10 11 12 13 14 15 16 17 18 19 20 21 22 23 24 25 26 27 28 29 30 31 32 33 34 35 36 37 38 39 40 41 42 43 44 45 46 47 48 49 50
000
ASUS41 KCTP 242210
RWRCTP

REGIONAL WEATHER ROUNDUP
NATIONAL WEATHER SERVICE STATE COLLEGE PA
500 PM EST WED DEC 24 2014

Note: "fair" indicates few or no clouds below 12,000 feet with no
significant weather and/or obstructions to visibility.

* = STATION THAT DOES NOT REPORT PRECIPITATION /E.G. RAIN...SNOW...ETC/
    THUNDER OR FOG.

PAZ002>004-007>009-013>016-020>023-029>032-242300-
WESTERN PENNSYLVANIA

CITY           SKY/WX    TMP DP  RH WIND       PRES   REMARKS
ERIE           CLOUDY    56  48  74 S15G23    29.34F
MEADVILLE      CLOUDY    52  48  86 VRB3      29.39F
FRANKLIN*      CLOUDY    52  46  82 SE12      29.43F
NEW CASTLE       N/A     55  52  90 CALM      29.41F
BEAVER COUNTY  NOT AVBL
BUTLER*        PTCLDY    54  48  82 E7        29.44F
PITTSBURGH INT MOCLDY    56  52  86 SE3       29.41F
PITTSBURGH     PTCLDY    57  49  74 SE5       29.41F
INDIANA*       CLEAR     54  48  82 W6        29.50R
LATROBE        MOCLDY    57  50  77 SW9       29.47R
WASHINGTON CO* NOT AVBL
$$

PAZ004>006-010>012-017>019-024>028-033>037-041-042-045-046-049>053-242300-
CENTRAL PENNSYLVANIA

CITY           SKY/WX    TMP DP  RH WIND       PRES   REMARKS
BRADFORD       CLOUDY    48  45  89 S7        29.47F
DUBOIS         CLOUDY    48  46  93 NW6       29.47R
CLEARFIELD     CLOUDY    47  46  97 E6        29.51F
JOHNSTOWN      CLOUDY    47  44  90 S9        29.48F
ALTOONA        CLOUDY    47  47 100 SE6       29.53F
STATE COLLEGE  CLOUDY    46  46 100 CALM      29.54F
WILLIAMSPORT   LGT RAIN  50  47  89 E3        29.58F
SELINSGROVE    LGT RAIN  47  46  97 CALM      29.59F FOG
FT INDIANTOWN  CLOUDY    49  49  99 CALM      29.64R FOG
CAPITAL CITY   LGT RAIN  48  47  96 CALM      29.63S FOG
HARRISBURG     FOG       47  46  97 CALM      29.63F VSB 1/2
YORK           LGT RAIN  49  48  97 CALM      29.62F VSB 3/4
$$

PAZ038>040-043-044-047-048-054-055-060>062-067>071-242300-
EASTERN PENNSYLVANIA

CITY           SKY/WX    TMP DP  RH WIND       PRES   REMARKS
SCRANTON       RAIN      52  49  89 NE7       29.60F FOG
MOUNT POCONO   LGT RAIN  46  45  96 E5        29.63F FOG
ALLENTOWN      LGT RAIN  50  48  93 E3        29.64F FOG
QUAKERTOWN*    NOT AVBL
READING        LGT RAIN  50  49  96 N3        29.62F FOG
LANCASTER      FOG       51  50  96 CALM      29.64S VSB 1/4
COATESVILLE    LGT RAIN  59  59 100 S6        29.64F VSB 3/4
POTTSTOWN      LGT RAIN  52  52 100 CALM      29.65F FOG
BLUE BELL      CLOUDY    55  55 100 CALM      29.64S VSB 1
DOYLESTOWN     LGT RAIN  50  50 100 CALM      29.64S FOG
WILLOW GROVE   NOT AVBL
NORTH PHILA    LGT RAIN  59  55  87 S5        29.65F FOG
PHILADELPHIA   LGT RAIN  63  61  93 SW14      29.65S
$$



USA.gov is the U.S. government's official web portal to all federal, state and local government web resources and services.